Location: *
(53.9002°N, 27.5624°E)
Time: 17:39:41
(UTC+00:00)

Cosmos 1805 Rocket - Pass Details

Date: 12 November 2019
Orbit: 606 x 630 km, 82.5° (Epoch: 10 December)

Event Time Altitude Azimuth Distance (km) Brightness Sun altitude
Rises 16:24:59 0° 345° (NNW) 2,880 7.1 -18.8°
Reaches altitude 10° 16:27:14 10° 342° (NNW) 1,972 6.3 -19.1°
Maximum altitude 16:31:30 58° 264° (W) 716 4.1 -19.7°
Drops below altitude 10° 16:35:46 10° 186° (S) 1,964 6.2 -20.4°
Sets 16:38:00 0° 182° (S) 2,867 7.0 -20.7°
